sat.trackr.live / text

‹ back to catalog

STARLINK-3608

NORAD 51776 · 2022-017J

PAYLOAD ACTIVE UNKNOWN

§ Identity

Operator
Country
US
Launch date
2022-02-25
Launch site
AFWTR
Launch vehicle
Mass (kg)
RCS (m²)

Purposes: comms

External: N2YO · Heavens-Above · Gunter

§ Orbital elements

Epoch: 2026-09-20T01:19:13.025568Z

Period
93.79 min
Inclination
53.1597°
Eccentricity
0.0001164
Mean motion
15.35404567 rev/d
Perigee alt
458.9 km
Apogee alt
460.5 km
Semi-major
6,837.9 km
B*
3.7939e-5
RAAN
173.8141°
Arg perigee
89.1273°
Mean anomaly
270.9863°
Rev number
25,208

§ Raw data

STARLINK-36081 51776U 22017J   26263.05501187  .00000943  00000+0  37939-4 0  99942 51776  53.1597 173.8141 0001164  89.1273 270.9863 15.35404567252087

JSON: /api/v1/satellites/51776 · /tle

For live sub-satellite position, see the globe view (requires WebGL).

§ Visibility from observer

Set your observer location to see the next 7 days of passes ≥ 10°. The values pass through the URL so the page stays shareable.

No JS? Fill the form by hand. The geolocation button needs JavaScript.